"Pseudo-MPEC" for ZTF0Msx

Created 2021 Sep 23 18:07:18 UT using Find_Orb

Click here for an explanation of pseudo-MPECs

 
 Astrometry: 
     ZTF0Msx  C2021 09 15.36286923 52 30.05 -00 55 00.4    ~9I2q 21.21gUNEOCPI41
     ZTF0Msx  C2021 09 15.41266723 52 17.72 -00 54 52.3    ~9I2q 21.28gUNEOCPI41
     ZTF0Msx  C2021 09 16.40503023 50 37.95 -00 51 28.3    ~9HEb 18.72iUNEOCPI41
     ZTF0Msx  C2021 09 16.40537723 50 37.54 -00 51 27.3    ~9HEb 18.72iUNEOCPI41
     ZTF0Msx  C2021 09 17.31144723 36 41.67 -00 15 15.8    ~9HAb 14.70RUNEOCPI41
     ZTF0Msx  C2021 09 17.31179423 36 38.87 -00 15 10.9    ~9HAb 14.70RUNEOCPI41
     ZTF0Msx  C2021 09 17.31238423 36 34.03 -00 15 02.5    ~9HAb 14.69RUNEOCPI41
     ZTF0Msx  C2021 09 17.31273223 36 31.18 -00 14 57.4    ~9HAb 14.69RUNEOCPI41
     ZTF0Msx  C2021 09 17.33832223 32 23.70 -00 07 41.1    ~9HAM 14.83gUNEOCPI41
     ZTF0Msx  C2021 09 17.33866923 32 19.66 -00 07 33.9    ~9HAM 14.83gUNEOCPI41
     ZTF0Msx  C2021 09 17.34020823 32 01.84 -00 07 03.0    ~9HAM 14.82gUNEOCPI41
     ZTF0Msx  C2021 09 17.34055523 31 57.73 -00 06 55.7    ~9HAM 14.82gUNEOCPI41

Station data:
(I41) Palomar Mountain--ZTF  (N33.357340 W116.859780)  US/California. 1.2-m
   f/2.44 Oschin Schmidt + CCD.

Orbital elements:  ZTF0Msx
   Perigee 2021 Sep 17.493264 +/- 0.000118602 TT = 11:50:18 (JD 2459474.993264)
Epoch 2021 Sep 17.0 TT = JDT 2459474.5                        AutoNEOCP
q 14113.2473 +/- 40.7825            (J2000 equator)
H   29.3  G 0.15                    Peri.   96.43029 +/- 0.0563982
                                    Node   356.04545 +/- 0.0004238
e   6.3165279 +/- 0.0386801         Incl.  158.55624 +/- 0.0247006
From 12 observations 2021 Sept. 15-17 (47.5 hr); mean residual 1".58
Residuals in arcseconds: 
210915 I41  1.1+  1.2-    210917 I41  .18-  1.4-    210917 I41  2.7+  .94+    
210915 I41  .73-  1.1+    210917 I41  .46+  1.5-    210917 I41  .87+  1.3+    
210916 I41  1.3+  .13+    210917 I41  .74+  1.6-    210917 I41  2.5-  1.3+    
210916 I41  2.0-  .98+    210917 I41  1.2+  1.6-    210917 I41  4.0-  1.6+    

Ephemerides (geocentric):
Date (UTC) HH   RA              Dec         delta   r     elong  mag " sig PA
---- -- -- --  -------------   -----------  ------ ------ -----  --- ---- ---
2021 09 23 18  10 47 04.927   -05 30 50.62  .04456 .96140  19.5 33??  360  65
2021 09 23 19  10 47 05.061   -05 30 50.16  .04486 .96112  19.5 33??  360  65
2021 09 23 20  10 47 05.200   -05 30 49.68  .04516 .96083  19.6 33??  360  65
2021 09 23 21  10 47 05.346   -05 30 49.18  .04546 .96055  19.6 33??  360  65
2021 09 23 22  10 47 05.497   -05 30 48.66  .04576 .96027  19.6 33??  360  65
2021 09 23 23  10 47 05.654   -05 30 48.12  .04605 .95999  19.7 33??  360  65
2021 09 24 00  10 47 05.816   -05 30 47.56  .04635 .95970  19.7 33??  360  65
2021 09 24 01  10 47 05.984   -05 30 46.98  .04665 .95942  19.7 33??  360  65
2021 09 24 02  10 47 06.157   -05 30 46.39  .04695 .95914  19.7 33??  360  65
2021 09 24 03  10 47 06.336   -05 30 45.77  .04725 .95886  19.8 33??  360  65
2021 09 24 04  10 47 06.520   -05 30 45.14  .04755 .95857  19.8 33??  360  65
2021 09 24 05  10 47 06.710   -05 30 44.49  .04785 .95829  19.8 33??  360  65
2021 09 24 06  10 47 06.905   -05 30 43.83  .04814 .95801  19.9 33??  360  65
2021 09 24 07  10 47 07.105   -05 30 43.15  .04844 .95773  19.9 33??  360  65
2021 09 24 08  10 47 07.311   -05 30 42.45  .04874 .95745  19.9 33??  360  65
2021 09 24 09  10 47 07.522   -05 30 41.73  .04904 .95717  20.0 33??  360  65
2021 09 24 10  10 47 07.737   -05 30 41.00  .04934 .95689  20.0 33??  360  65
2021 09 24 11  10 47 07.959   -05 30 40.26  .04964 .95661  20.0 33??  360  65
2021 09 24 12  10 47 08.185   -05 30 39.50  .04994 .95632  20.1 33??  360  65
2021 09 24 13  10 47 08.416   -05 30 38.72  .05024 .95604  20.1 33??  360  65
2021 09 24 14  10 47 08.653   -05 30 37.93  .05054 .95576  20.1 33??  360  65
2021 09 24 15  10 47 08.894   -05 30 37.12  .05084 .95548  20.2 33??  360  65
2021 09 24 16  10 47 09.141   -05 30 36.30  .05114 .95520  20.2 33??  360  65
2021 09 24 17  10 47 09.392   -05 30 35.47  .05143 .95492  20.2 33??  360  65
2021 09 24 18  10 47 09.649   -05 30 34.62  .05173 .95464  20.2 33??  360  65
2021 09 24 19  10 47 09.910   -05 30 33.75  .05203 .95436  20.3 33??  360  65
2021 09 24 20  10 47 10.176   -05 30 32.88  .05233 .95408  20.3 33??  360  65
2021 09 24 21  10 47 10.447   -05 30 31.99  .05263 .95380  20.3 33??  360  65
2021 09 24 22  10 47 10.723   -05 30 31.09  .05293 .95352  20.4 33??  359  65
2021 09 24 23  10 47 11.004   -05 30 30.17  .05323 .95324  20.4 33??  359  65
2021 09 25 00  10 47 11.290   -05 30 29.24  .05353 .95296  20.4 33??  359  65
2021 09 25 01  10 47 11.580   -05 30 28.30  .05383 .95268  20.5 33??  359  65
2021 09 25 02  10 47 11.876   -05 30 27.35  .05413 .95240  20.5 33??  359  65
2021 09 25 03  10 47 12.175   -05 30 26.39  .05443 .95212  20.5 33??  359  65
2021 09 25 04  10 47 12.480   -05 30 25.41  .05473 .95184  20.6 33??  359  65
2021 09 25 05  10 47 12.790   -05 30 24.42  .05503 .95157  20.6 33??  359  65
2021 09 25 06  10 47 13.104   -05 30 23.42  .05533 .95129  20.6 33??  359  65
2021 09 25 07  10 47 13.422   -05 30 22.41  .05563 .95101  20.7 33??  359  65
2021 09 25 08  10 47 13.746   -05 30 21.39  .05593 .95073  20.7 33??  359  65
2021 09 25 09  10 47 14.074   -05 30 20.35  .05623 .95045  20.7 33??  359  65
2021 09 25 10  10 47 14.407   -05 30 19.31  .05653 .95017  20.7 33??  359  65
2021 09 25 11  10 47 14.744   -05 30 18.25  .05683 .94989  20.8 33??  359  65
2021 09 25 12  10 47 15.086   -05 30 17.19  .05713 .94962  20.8 33??  359  65
2021 09 25 13  10 47 15.432   -05 30 16.11  .05743 .94934  20.8 33??  359  65
2021 09 25 14  10 47 15.783   -05 30 15.03  .05773 .94906  20.9 33??  359  65
2021 09 25 15  10 47 16.138   -05 30 13.93  .05803 .94878  20.9 33??  359  65
2021 09 25 16  10 47 16.498   -05 30 12.83  .05833 .94850  20.9 33??  359  65
2021 09 25 17  10 47 16.863   -05 30 11.71  .05863 .94823  21.0 33??  359  65